Theta_e
310 311 311 312 311 311 311 311 311 310 311 310 309 312 311 320 309 304 319 322 317 317 316 318 321 327 331 320 323 326 326 327 339 340 333 337 339 343 341 347 353 349 347 348 348 346 348 350 349 346 342 343 347 342 338 341 334 338 345 342 343 343 345 345 344 345 345 344 345 345 344 344 343 343 342 343 343 342 342 339 336 333 334 333 337 337 337
310 311 311 312 310 311 312 311 311 311 311 310 310 310 311 311 319 318 316 322 316 314 316 319 323 324 323 325 329 331 326 324 339 336 341 332 337 341 346 349 351 353 351 350 348 347 348 349 347 343 342 344 342 339 337 335 340 342 344 342 345 344 342 343 345 344 345 345 345 345 343 342 343 343 340 342 339 341 341 338 338 338 340 340 335 334 336
308 311 312 311 311 310 310 311 311 311 311 311 311 311 311 313 312 312 312 321 319 319 329 326 327 334 329 329 323 323 333 327 323 325 325 330 333 340 345 349 350 351 351 350 348 348 349 348 346 344 342 344 341 335 337 338 342 338 347 345 346 345 344 344 345 345 344 344 344 343 343 343 343 342 342 342 342 342 342 341 341 340 338 338 336 336 335
306 309 310 310 311 310 309 309 310 311 310 308 310 310 312 311 314 314 313 314 311 319 325 323 326 325 326 325 326 327 328 324 327 327 326 332 340 339 343 346 348 350 348 349 348 348 348 349 347 346 344 343 342 340 339 337 336 339 343 345 345 346 345 345 345 344 343 344 343 342 343 343 343 343 342 342 342 341 340 339 341 341 337 338 339 337 335
304 309 310 309 309 308 305 306 309 311 312 313 313 313 316 315 316 315 309 309 318 322 325 322 323 321 324 325 324 327 331 340 332 332 331 333 335 342 345 344 345 345 343 349 350 349 350 349 348 347 346 343 338 338 338 339 338 338 343 343 347 347 345 344 344 343 344 343 343 342 342 342 343 343 343 342 341 339 337 338 339 340 339 337 337 339 337
305 308 309 310 307 299 301 314 315 314 311 312 310 310 312 318 319 315 316 319 324 320 320 319 322 321 325 329 331 330 332 332 338 334 337 335 336 336 337 345 344 348 349 350 352 352 353 352 349 346 348 342 339 339 337 338 338 342 344 345 347 346 346 345 344 344 343 342 342 342 343 343 343 343 342 341 340 338 337 339 338 337 338 339 339 339 338
305 308 308 304 298 300 315 316 316 316 315 314 312 313 313 315 321 319 316 317 320 324 322 324 324 328 328 326 331 325 325 336 333 335 331 335 337 338 338 346 346 354 355 355 356 356 353 350 349 345 344 340 338 338 336 336 341 347 345 345 347 347 345 345 344 343 343 342 342 342 343 343 343 342 341 341 340 339 336 335 336 339 339 339 339 336 335
309 305 304 298 298 312 318 317 316 317 316 315 315 314 314 316 316 320 317 319 320 326 323 321 327 331 324 325 333 334 331 328 327 325 326 328 329 335 340 350 353 356 355 356 353 355 353 351 348 344 340 336 335 336 336 338 342 347 346 346 346 346 345 344 343 343 342 342 342 342 342 342 341 341 341 342 340 340 339 336 337 337 337 338 336 335 335
302 304 303 303 317 312 314 312 313 315 315 315 313 308 314 319 320 320 319 321 321 321 321 322 323 325 322 323 326 326 324 331 330 328 327 328 334 339 348 347 352 360 358 358 354 358 354 351 348 346 340 335 338 338 337 339 344 343 344 346 345 346 344 344 342 342 341 340 341 341 341 340 340 339 340 341 341 341 338 336 335 335 335 334 336 335 334
308 303 302 303 304 302 307 317 318 320 320 319 319 318 311 325 319 320 320 321 324 321 320 322 324 326 319 316 318 323 322 324 333 333 331 330 338 343 345 355 352 359 358 357 360 354 352 350 348 347 341 341 345 345 341 341 339 339 341 342 345 345 344 343 343 343 342 341 341 340 341 340 340 340 340 342 341 341 337 334 332 331 332 334 337 337 334
308 305 301 301 300 304 314 317 318 320 321 319 320 313 308 321 321 321 320 319 321 321 320 323 325 319 313 314 319 328 330 329 331 331 330 330 339 345 347 348 350 352 356 357 353 354 352 349 348 349 346 345 344 345 343 338 338 339 341 344 344 344 344 344 344 343 342 342 341 340 340 339 338 338 339 340 340 339 337 335 334 338 337 336 333 333 329
307 305 302 300 306 305 314 316 318 319 321 321 319 302 305 321 319 320 321 319 319 322 327 323 322 318 313 314 323 326 328 329 331 338 344 345 343 346 351 350 353 356 357 358 352 351 349 350 350 350 348 346 343 344 341 339 338 341 343 345 348 348 346 345 344 343 342 342 342 340 340 341 340 340 341 337 336 335 336 334 333 334 333 331 331 328 328
305 305 304 306 310 319 318 317 321 321 320 316 307 299 310 324 325 323 324 320 320 325 324 322 316 323 325 328 328 326 325 325 330 332 335 344 344 346 346 348 350 354 354 354 350 349 349 352 350 348 346 346 346 347 348 345 344 345 347 348 350 349 348 344 342 342 342 342 342 341 341 341 341 340 338 336 336 336 333 333 338 335 332 331 330 334 330
305 306 303 304 309 318 320 320 319 321 315 305 304 321 328 327 321 326 321 321 323 324 327 325 325 325 325 324 325 327 326 326 336 332 337 339 342 341 349 352 351 351 349 352 351 348 354 353 350 350 351 352 351 353 351 349 351 351 354 356 352 350 349 345 343 341 341 342 343 342 342 342 341 340 341 341 339 338 337 337 335 334 335 336 336 333 334
308 308 305 302 295 316 318 318 317 320 313 320 323 329 325 322 323 322 325 322 324 323 325 324 328 326 323 323 324 326 328 329 335 338 336 340 336 338 350 350 352 349 349 348 345 346 344 346 350 351 351 352 353 351 352 351 353 357 356 355 355 352 349 346 344 343 344 344 343 342 342 342 340 339 341 341 341 342 343 340 337 333 333 335 334 329 328
306 303 301 299 313 320 321 319 313 318 324 327 330 327 330 323 323 324 323 327 326 324 326 324 324 325 325 329 330 332 332 331 337 338 340 341 343 350 348 350 350 347 349 347 344 346 341 344 347 348 354 353 352 351 350 351 353 354 357 355 355 352 350 348 346 345 344 344 345 344 343 342 340 341 341 340 341 342 337 329 326 328 332 332 330 326 326
313 309 311 318 324 322 323 324 323 324 325 327 326 325 322 322 324 327 326 329 326 327 328 328 328 326 328 329 327 325 333 330 332 334 338 336 340 344 344 344 343 344 343 343 340 344 348 344 344 349 353 353 351 348 349 348 350 351 352 352 351 350 348 347 348 346 345 345 342 341 340 339 339 339 338 339 339 336 334 332 329 330 329 331 329 328 326
322 321 320 320 321 321 320 321 323 322 322 326 328 327 327 327 327 327 326 326 327 328 331 326 328 327 330 329 327 326 334 335 336 339 341 342 342 341 342 342 344 341 338 338 342 346 349 351 352 352 351 348 343 346 345 345 349 350 349 349 349 347 347 347 346 346 340 340 337 337 339 338 337 340 341 338 333 332 331 332 332 328 328 330 329 328 328
311 304 320 318 318 320 321 320 322 323 324 324 327 327 328 325 326 326 327 330 329 328 330 330 331 328 328 329 330 333 347 339 341 339 339 341 342 339 337 340 343 339 337 336 341 343 343 345 345 343 345 345 349 348 347 345 346 348 346 347 345 346 347 346 345 339 339 332 334 336 334 335 338 338 331 336 331 327 327 328 328 327 329 327 327 327 327
313 316 318 320 319 320 320 320 319 320 323 324 326 327 328 331 329 328 328 328 328 329 327 329 331 328 327 328 334 331 339 339 345 344 342 340 339 342 344 342 349 341 339 337 338 338 342 344 345 339 336 336 337 340 330 329 331 336 343 341 341 344 344 345 344 341 339 338 333 331 334 333 331 330 332 331 334 331 330 329 327 325 326 327 326 327 327
315 318 320 321 319 318 318 319 321 322 323 324 325 326 327 326 327 327 328 326 326 327 329 333 333 330 331 336 339 332 338 337 337 337 338 338 337 341 338 339 346 345 342 340 342 341 340 340 340 339 334 331 330 332 331 333 343 340 336 334 339 339 340 343 342 340 335 331 336 332 330 329 330 321 315 327 332 332 328 322 327 328 326 329 329 327 326
311 313 316 319 311 314 314 316 319 322 323 322 322 324 323 324 324 326 326 327 327 328 329 331 334 336 337 337 338 330 332 334 333 335 332 331 335 337 340 337 338 337 339 341 341 340 340 340 338 337 335 334 333 328 330 332 338 341 340 337 335 334 336 336 334 332 333 331 337 334 331 331 329 315 305 298 303 318 318 305 299 295 303 320 317 322 322
308 314 319 320 321 318 317 317 319 323 322 321 320 320 321 322 323 323 325 326 329 330 330 332 334 338 337 336 336 333 335 335 335 333 333 333 334 336 338 336 336 336 337 339 340 340 339 339 336 335 336 332 336 332 335 336 333 337 336 337 334 332 332 330 330 341 338 339 336 333 332 333 331 325 318 311 297 296 301 301 297 294 293 294 298 303 318
314 316 316 318 317 315 317 318 319 321 324 321 319 319 320 321 321 321 323 324 327 330 329 328 331 336 335 335 335 336 336 336 335 334 333 333 333 335 337 337 336 337 337 338 338 338 338 338 336 336 330 334 337 328 333 335 335 337 335 337 334 331 330 329 343 342 335 335 332 331 333 334 333 333 325 320 318 299 294 298 298 294 294 294 294 297 298
310 315 315 316 317 317 318 320 320 320 324 321 319 319 320 319 319 320 321 324 326 327 328 326 328 332 332 332 335 335 336 336 335 336 336 336 334 332 333 333 336 338 339 340 340 338 336 338 337 335 334 335 336 331 334 330 332 332 333 334 328 326 329 332 332 335 332 334 334 332 329 329 329 329 327 324 323 319 308 295 294 294 294 294 294 294 295
313 313 315 315 316 316 319 318 318 320 319 319 319 319 321 323 322 322 321 325 322 324 324 324 324 327 329 330 333 335 335 333 337 337 336 331 330 329 333 334 336 338 337 340 338 338 334 336 335 333 333 332 335 335 330 333 334 334 333 333 331 332 329 329 333 335 331 331 332 332 336 332 328 327 326 325 322 321 317 312 311 305 299 295 293 296 295
313 313 311 311 311 313 317 314 313 316 317 317 317 319 319 320 323 321 320 319 319 320 321 324 326 328 330 329 332 332 335 335 335 335 333 333 328 328 329 332 335 337 337 337 338 338 336 337 335 334 332 331 336 336 333 331 333 333 334 334 334 332 331 332 330 331 329 330 329 332 330 330 327 326 324 325 325 325 322 319 317 316 313 311 302 296 305
311 311 310 307 307 309 312 316 317 316 316 316 318 317 317 318 317 317 316 317 319 320 320 324 323 326 331 331 330 330 331 336 335 332 330 329 327 325 328 334 335 335 335 335 335 334 333 332 330 331 332 336 336 334 331 333 334 333 333 332 331 329 329 330 331 332 332 332 331 331 330 329 328 327 325 324 323 323 322 323 322 319 317 316 314 307 298
311 313 315 315 315 316 316 316 317 316 317 318 318 318 316 315 314 314 315 315 317 318 318 319 323 328 326 331 329 328 328 332 332 331 330 330 330 327 335 336 335 333 334 333 330 331 333 333 332 332 334 335 333 333 332 331 332 331 330 329 329 328 331 330 330 330 330 332 330 328 326 326 326 326 325 325 325 323 324 322 323 323 320 317 315 314 309
313 315 314 315 315 313 313 312 313 314 314 315 314 315 317 317 315 315 315 315 316 316 318 320 322 321 322 323 329 326 326 325 327 328 327 326 326 334 334 336 332 332 332 333 332 332 333 334 333 332 333 332 331 332 330 331 330 331 330 330 330 331 330 329 328 328 328 330 328 326 326 325 325 327 325 323 323 322 321 321 321 319 318 316 316 314 313
315 315 313 313 313 313 312 313 315 314 315 317 318 316 316 316 314 315 316 318 319 318 320 321 324 324 324 322 326 328 327 327 330 329 329 333 332 333 333 331 329 328 329 331 334 334 334 332 331 331 332 331 329 329 329 329 329 329 329 330 330 322 320 322 323 324 324 325 325 324 324 324 325 325 322 320 319 318 318 318 317 316 314 314 313 312 311
313 313 313 313 315 316 316 318 318 317 317 317 316 314 314 314 313 313 313 313 314 316 320 323 324 323 325 327 329 331 330 331 331 330 327 331 333 336 334 331 331 332 330 333 332 331 331 331 329 330 331 330 328 329 328 327 328 327 325 327 327 330 324 321 324 324 325 324 324 324 325 323 322 322 320 318 318 318 317 316 315 314 314 312 310 309 310
313 313 313 314 313 312 312 313 313 313 313 313 314 315 316 315 315 315 315 316 316 319 319 322 324 323 324 326 330 330 329 330 329 327 327 334 334 334 334 332 334 334 333 332 331 330 329 327 327 329 329 327 327 326 325 325 325 324 326 326 327 326 326 322 321 323 324 323 322 322 322 322 322 320 319 319 318 317 317 316 315 314 314 311 310 308 307
312 312 312 311 311 310 310 311 312 312 313 314 314 314 314 315 315 315 316 318 316 317 319 322 324 324 324 327 329 324 323 325 328 330 332 333 333 333 333 332 332 331 329 329 328 327 327 327 327 327 327 325 325 324 324 324 324 325 326 326 327 325 325 324 324 323 322 321 321 321 321 321 319 319 319 318 318 317 316 316 315 314 312 310 308 307 302
314 313 313 312 313 312 312 311 311 311 310 310 310 312 314 315 316 316 318 318 318 318 322 321 323 322 321 321 320 318 318 331 331 332 332 331 328 326 329 329 328 327 326 327 327 326 327 327 326 325 326 324 323 322 324 324 324 325 327 326 326 324 324 323 322 321 321 320 320 319 319 318 318 319 319 318 317 317 317 316 314 314 311 310 310 307 307
314 313 314 315 315 316 315 315 315 315 315 315 315 315 316 317 317 316 316 316 317 318 319 320 322 320 320 322 321 319 318 324 323 324 323 325 328 330 329 327 325 323 323 323 324 324 325 325 324 325 324 322 322 322 324 323 324 325 325 324 324 323 323 321 321 321 321 320 318 318 318 318 318 318 318 317 316 315 313 312 311 311 311 309 309 309 307
314 314 314 314 315 317 317 317 317 316 317 317 317 317 317 318 318 320 319 318 317 317 319 317 317 318 319 321 321 321 325 329 327 326 326 328 327 327 327 325 324 322 321 319 323 324 324 323 322 321 323 323 321 322 323 324 324 324 323 322 321 320 320 319 319 319 319 319 317 317 316 316 315 314 315 314 313 311 311 310 310 310 310 310 310 309 308
314 314 315 315 316 316 317 317 318 318 317 317 318 319 320 319 320 319 319 319 318 319 321 319 320 321 324 326 323 328 328 328 327 325 327 327 327 324 324 322 322 322 318 322 323 324 322 322 321 322 323 322 321 322 322 322 323 322 321 320 320 319 319 317 317 317 317 317 316 313 313 313 312 312 312 312 312 311 311 311 310 311 310 309 309 309 307
315 315 315 315 316 316 316 317 318 318 318 318 318 318 319 319 319 319 319 319 321 322 320 323 321 322 323 322 323 327 327 326 326 325 326 325 323 322 323 324 324 324 324 324 323 322 321 321 323 323 322 320 320 319 321 322 324 322 320 320 320 319 318 318 316 316 315 316 315 313 313 312 312 312 311 310 311 311 311 310 309 310 309 309 308 307 307
315 315 315 315 315 316 317 317 317 318 319 320 319 318 318 318 319 319 319 320 324 326 323 324 323 322 323 325 326 326 325 325 325 324 322 322 323 322 321 322 323 324 325 324 323 321 322 323 322 322 322 320 319 318 317 318 319 318 318 316 316 315 315 315 315 314 314 313 312 310 310 311 311 310 310 310 310 310 309 309 308 307 307 308 307 307 307
315 315 316 316 316 317 317 318 317 318 318 319 320 322 322 322 321 321 323 324 324 326 326 326 325 325 325 323 321 321 324 322 322 321 321 321 319 319 318 319 322 323 322 321 322 321 322 322 321 319 320 319 318 320 317 317 316 317 316 315 314 314 313 312 312 312 311 312 312 310 310 310 310 309 309 309 309 309 308 308 307 306 306 307 307 307 307
315 316 316 316 316 316 317 317 317 317 319 321 322 322 322 322 323 323 323 322 324 324 325 326 326 323 322 320 319 319 321 320 321 321 322 321 320 319 316 317 319 320 322 322 322 320 319 320 321 320 318 318 318 318 316 316 316 315 315 315 315 315 314 313 312 312 313 313 313 312 311 310 310 309 309 309 307 307 307 307 307 307 307 307 307 306 306
316 316 316 315 316 317 316 317 318 319 319 320 321 321 321 320 320 320 320 319 320 321 323 322 322 322 322 321 320 320 319 320 320 320 321 321 321 321 322 319 321 321 321 322 319 317 318 318 315 314 315 314 313 314 313 313 312 311 312 312 313 312 312 312 312 311 311 309 309 309 309 310 308 307 307 307 306 307 307 306 306 307 306 306 306 306 306
317 316 316 316 315 316 318 318 318 319 317 319 321 322 322 322 321 319 319 320 321 322 321 321 320 320 320 320 319 319 319 319 320 321 320 319 320 320 322 320 321 321 322 319 318 317 316 315 314 313 313 312 310 309 309 308 309 310 310 310 310 309 309 310 311 311 310 309 309 309 308 309 307 307 307 306 306 306 307 306 306 306 306 306 306 305 305
316 316 316 317 317 317 316 317 318 317 319 320 319 320 320 320 320 320 319 319 317 316 318 319 318 318 318 320 321 320 321 322 320 320 316 314 314 315 320 321 320 320 319 320 319 317 313 311 311 311 310 308 308 308 308 310 310 308 308 308 307 308 309 310 309 309 309 308 308 307 308 307 307 306 306 306 308 306 306 306 306 306 305 305 305 304 305
316 316 318 317 317 317 318 318 319 319 318 319 317 317 318 318 317 318 320 318 319 320 320 320 319 319 319 320 320 320 320 320 320 321 322 320 318 319 320 319 319 318 319 320 317 313 311 311 311 309 308 308 308 309 310 310 308 308 308 307 308 308 308 308 309 309 308 308 307 306 306 306 305 305 306 305 305 305 306 306 306 305 306 304 305 305 305
316 317 316 317 318 319 320 319 319 318 318 317 316 317 317 318 317 317 317 319 320 320 320 320 319 319 320 322 323 321 317 318 320 321 320 321 322 319 319 320 318 317 317 317 313 311 309 309 310 310 309 308 309 309 310 309 308 307 306 306 307 306 306 306 308 308 306 307 308 308 307 306 305 305 305 305 305 305 305 304 304 304 304 304 305 304 305
316 316 316 318 319 318 317 318 318 317 316 316 317 316 318 317 318 319 319 319 320 321 321 320 323 320 320 320 321 321 324 320 315 316 318 318 319 318 317 316 315 317 315 315 314 312 313 311 310 310 309 308 308 309 310 309 308 308 307 306 306 305 306 306 306 306 307 307 306 308 305 305 305 304 304 304 304 304 304 304 303 303 304 304 304 303 303
317 317 318 318 317 318 317 317 317 316 317 318 318 320 321 320 320 320 319 320 319 319 320 319 320 320 321 322 321 322 322 322 322 319 318 318 317 317 317 317 319 317 313 313 311 310 311 307 308 309 309 309 308 309 309 309 309 308 308 305 306 305 305 305 305 304 304 305 306 305 305 304 304 305 303 304 304 304 304 304 304 303 303 304 304 304 303
316 317 316 317 316 316 316 317 317 317 318 319 319 319 319 319 319 320 320 317 318 318 319 320 319 323 321 323 321 323 322 321 320 325 321 319 318 318 317 316 315 315 314 313 312 310 312 309 309 309 308 308 308 308 309 309 309 308 307 306 305 305 304 304 304 304 306 306 304 304 304 304 304 304 304 304 304 304 304 304 304 303 302 304 304 303 303
315 317 317 319 319 319 318 317 318 320 321 319 321 321 319 319 318 318 318 317 317 316 315 316 318 319 321 321 320 320 322 323 322 321 318 318 319 317 317 315 313 313 313 313 313 310 308 306 306 307 307 308 308 309 309 309 309 308 309 306 306 305 304 304 303 303 303 304 304 304 304 304 304 305 304 304 304 304 304 304 304 304 303 303 303 304 303
314 316 317 317 316 316 318 317 318 319 321 322 320 317 316 316 317 316 316 317 315 314 315 316 317 319 322 321 319 320 320 320 322 323 319 318 317 316 316 316 313 312 311 311 313 311 309 308 309 310 310 309 309 309 311 310 307 307 307 308 307 304 304 304 305 304 304 304 303 303 303 303 304 303 303 303 303 303 303 303 303 303 303 303 303 303 303
Wind_Speed
19 20 22 17 12 14 15 16 17 19 19 20 19 11 14 7 7 9 6 11 11 10 13 12 10 8 2 2 3 4 3 4 4 6 8 8 9 10 11 12 10 13 14 14 16 16 14 14 13 12 11 9 7 8 7 6 7 5 6 10 6 5 4 4 4 5 4 4 4 4 4 4 4 4 3 3 3 4 4 5 6 7 6 7 5 6 6
14 17 23 23 22 17 18 18 17 18 20 22 21 21 19 16 8 8 8 9 10 9 8 6 3 1 2 5 5 1 4 7 4 5 4 11 9 10 10 7 6 9 12 14 14 15 14 15 13 13 11 9 10 10 9 9 7 4 8 8 7 6 6 5 5 5 5 4 4 4 4 4 4 4 4 4 5 4 4 5 5 4 4 4 6 6 6
19 22 23 23 21 19 16 17 20 21 20 19 19 20 20 18 17 18 13 5 4 5 3 6 7 5 2 5 5 6 4 6 8 7 10 7 11 11 10 8 7 4 6 10 13 14 14 15 15 14 13 10 11 12 9 9 9 7 7 9 7 7 7 7 6 6 6 6 5 5 5 4 4 4 4 4 4 4 5 4 4 5 6 6 4 4 6
14 16 15 16 18 20 21 20 22 23 21 20 17 14 15 15 8 1 4 4 5 3 7 7 5 6 6 4 4 6 7 8 7 9 9 6 5 9 11 10 11 11 9 11 14 15 16 15 15 14 12 12 11 8 7 6 4 7 7 9 9 8 7 7 7 8 7 7 7 6 6 6 5 5 5 4 4 4 5 5 5 4 4 4 4 5 5
13 14 18 23 21 19 18 19 23 22 15 13 13 13 13 12 7 5 6 8 5 1 2 4 4 2 7 6 6 3 2 4 5 4 3 4 5 4 10 12 13 14 16 16 14 14 15 15 15 14 12 10 9 8 7 7 9 12 9 11 9 8 8 8 8 7 7 7 7 7 6 6 5 5 5 5 5 5 6 6 4 4 4 4 5 4 4
10 15 20 16 8 11 11 7 14 10 11 16 19 17 17 5 5 2 2 4 5 1 1 1 4 5 3 3 3 2 2 3 5 5 6 7 7 8 7 10 12 13 13 13 14 16 14 13 14 13 11 12 10 9 8 5 10 10 9 9 9 9 8 8 8 7 7 7 7 7 6 6 6 5 5 6 5 5 5 4 4 5 4 4 3 4 4
9 9 11 10 13 11 7 9 11 14 15 17 21 22 17 5 5 3 5 2 4 6 7 4 3 2 4 4 5 6 5 3 5 5 8 7 6 7 8 6 9 10 11 11 13 14 15 15 13 11 10 11 10 8 8 11 12 9 10 10 9 9 9 9 8 8 8 7 7 6 6 6 6 6 6 5 6 6 6 5 4 4 4 3 3 5 7
9 11 10 10 11 9 7 7 9 15 15 15 11 12 13 11 6 9 6 7 8 7 3 2 4 4 7 5 2 3 5 8 8 9 8 9 9 8 7 5 8 10 12 11 13 14 13 12 13 13 12 12 11 9 9 13 11 8 10 9 10 9 9 9 9 9 8 8 7 6 6 6 7 7 7 6 6 6 6 6 5 4 4 4 4 5 5
12 10 11 13 2 8 7 8 9 8 7 7 7 8 5 6 7 3 3 4 5 7 6 4 2 6 2 2 2 8 11 9 9 8 8 8 7 7 5 7 8 8 9 9 11 10 12 12 13 14 14 14 11 11 13 12 9 9 8 9 9 10 10 10 10 9 9 9 8 8 7 7 8 8 7 7 6 5 6 6 6 6 5 5 4 5 5
10 11 11 11 8 9 7 6 8 8 12 9 9 6 9 4 7 4 3 5 4 2 1 2 6 4 3 5 6 9 16 12 7 7 7 6 6 6 7 6 8 8 8 9 9 11 13 13 13 12 14 13 12 11 10 10 11 10 10 10 10 9 10 10 9 9 9 9 9 9 8 9 9 7 7 6 6 5 6 6 7 6 5 4 4 4 5
5 8 11 10 8 8 5 5 6 10 9 13 11 8 8 3 9 4 3 7 5 3 1 3 5 3 4 5 5 7 8 9 6 8 8 6 9 8 9 11 11 11 9 9 11 10 11 12 11 11 12 12 12 10 11 12 12 12 11 10 11 11 10 9 8 9 9 10 10 10 10 10 9 8 7 6 6 5 6 6 6 4 3 3 5 5 7
5 7 6 9 5 6 3 7 7 10 10 5 6 11 6 3 1 3 7 10 7 6 6 6 4 2 4 5 2 4 7 4 6 5 3 6 10 9 9 10 10 9 9 10 12 12 13 11 11 11 11 10 10 9 10 10 10 10 10 10 9 9 9 9 8 8 9 9 10 10 10 8 8 7 5 6 6 6 6 5 5 3 5 7 8 7 5
11 12 9 11 4 3 2 7 12 14 8 8 7 5 1 6 6 2 3 8 6 4 3 4 5 4 4 4 7 7 8 10 6 7 6 8 8 10 12 12 12 10 10 10 12 12 10 10 9 9 8 8 7 8 7 7 7 6 8 9 9 8 8 9 9 9 9 10 11 10 8 7 7 6 7 7 7 6 7 5 3 5 6 5 5 3 3
10 7 13 11 7 2 6 6 12 8 4 11 6 1 4 9 2 5 3 3 1 4 4 2 2 3 3 11 7 5 7 9 7 6 10 9 5 2 7 12 12 12 13 11 12 12 9 9 8 6 6 4 3 3 4 5 5 5 3 4 6 8 8 9 10 10 10 8 8 8 8 8 7 7 5 5 4 4 4 3 5 6 5 3 2 2 3
9 8 7 4 6 5 8 5 4 10 6 0 1 1 3 4 9 7 5 4 1 1 2 2 4 6 6 7 11 10 5 6 7 6 10 8 10 9 10 13 13 13 12 13 13 13 12 8 6 4 6 4 4 3 3 3 2 2 3 3 4 6 8 9 9 9 8 8 8 7 7 8 8 7 5 5 3 2 2 1 3 5 5 3 2 5 5
4 7 5 1 4 4 6 0 1 7 9 7 3 1 6 9 1 2 1 2 3 5 4 6 7 8 10 9 7 7 6 6 6 5 9 9 5 5 10 14 15 13 11 10 11 12 12 9 6 3 3 5 5 4 3 1 2 3 3 4 5 5 6 7 7 8 7 7 7 6 7 7 8 7 6 5 4 2 6 6 4 7 5 4 2 1 2
3 2 4 2 4 8 11 9 8 7 6 5 6 1 5 2 2 8 3 6 5 4 5 6 6 6 6 9 10 10 5 5 9 9 10 10 8 8 7 11 11 11 12 9 9 7 5 10 9 7 4 5 5 4 2 1 2 3 3 4 5 5 5 5 5 6 5 1 4 4 7 8 7 6 5 3 4 3 4 5 5 4 1 3 1 3 3
4 7 6 4 5 6 7 6 4 3 6 10 9 11 8 6 7 3 5 6 6 7 6 8 6 6 6 8 9 8 8 5 3 1 6 8 10 9 9 7 7 9 10 10 10 13 10 9 8 7 5 4 3 2 1 1 2 3 4 4 5 5 5 5 4 2 3 4 7 9 8 3 5 3 3 5 6 6 2 2 3 3 6 5 5 4 5
3 2 8 6 2 4 12 12 13 12 9 8 7 7 5 4 3 4 2 3 4 5 6 7 7 8 8 9 7 9 4 4 7 6 5 5 7 5 7 7 4 7 9 9 10 11 10 7 8 7 7 5 4 3 3 4 5 6 6 5 3 3 4 5 1 1 3 3 8 9 10 8 6 1 1 3 5 2 3 4 3 4 6 6 5 5 5
3 5 2 4 9 12 11 8 8 9 8 8 6 5 2 2 3 3 5 4 4 4 6 3 6 6 7 8 6 11 3 6 8 7 7 8 5 2 5 6 1 5 7 8 10 9 6 7 6 6 4 3 2 0 2 4 5 1 2 1 3 4 5 4 3 2 1 4 0 2 2 5 7 9 7 4 4 5 5 4 3 6 8 8 7 7 5
5 7 4 3 2 9 8 8 8 7 6 6 6 5 7 7 8 8 6 6 4 4 7 9 8 7 5 10 10 7 12 11 9 9 9 10 12 11 5 8 4 6 8 11 10 10 8 7 6 5 5 3 4 3 2 3 7 4 1 2 2 4 5 4 4 2 2 6 3 3 4 3 4 2 4 4 2 1 5 4 2 7 10 7 7 8 6
2 3 4 8 3 2 6 7 7 6 6 6 7 6 7 7 8 8 9 9 7 3 5 4 7 7 7 6 7 8 6 7 5 8 10 10 9 7 3 5 8 9 9 8 7 8 6 5 6 4 3 3 2 2 3 4 5 5 5 4 4 5 5 7 8 6 6 7 7 5 4 3 4 6 8 11 9 5 4 7 9 10 8 3 3 4 6
2 3 4 6 5 7 6 5 4 4 5 5 6 7 6 7 7 8 8 9 11 7 4 5 4 5 5 5 5 9 10 9 12 11 9 8 2 12 7 5 5 7 7 7 7 6 5 3 5 5 3 3 3 3 3 2 2 2 2 2 4 6 6 8 3 3 2 3 4 5 5 5 7 8 6 7 12 12 9 8 8 10 9 8 11 12 6
10 7 7 6 5 4 2 4 1 3 3 4 5 6 7 7 7 8 7 8 7 9 3 1 2 3 2 2 7 8 10 12 10 11 10 11 12 9 7 8 9 8 8 6 7 9 5 4 4 3 4 4 4 1 2 3 1 0 2 2 4 5 6 7 1 1 1 4 4 4 2 3 4 2 4 4 2 7 7 6 8 9 9 9 10 13 14
8 6 7 6 5 5 4 4 4 2 6 5 5 6 8 7 8 8 8 6 6 7 7 6 5 4 3 4 6 5 7 8 9 9 12 12 10 8 8 9 9 7 6 5 6 6 6 7 6 4 4 4 4 2 2 1 1 1 1 3 5 6 6 5 6 5 4 3 3 3 4 2 0 3 3 3 1 1 5 5 5 7 8 10 9 10 11
8 5 3 5 6 6 5 5 4 3 8 6 5 7 7 7 7 7 7 7 7 7 7 8 10 4 5 2 4 8 7 8 6 4 5 7 6 5 5 8 9 8 9 8 7 7 7 7 6 5 4 5 5 5 3 2 3 2 2 3 4 4 5 6 5 4 5 5 1 2 3 4 4 3 4 4 6 5 5 4 2 3 4 7 6 7 8
4 4 4 4 5 5 4 6 6 9 8 7 8 9 10 9 8 7 8 9 10 10 8 6 7 5 3 2 2 5 8 7 7 6 5 6 8 8 9 9 9 8 9 7 5 6 7 6 5 5 4 2 5 3 1 1 1 1 2 3 3 4 8 6 4 5 5 5 4 3 3 4 5 4 2 3 5 5 5 4 4 4 4 2 1 2 1
6 5 3 3 3 3 6 7 7 8 9 8 7 8 9 9 10 11 11 10 9 9 8 6 6 6 3 4 3 6 5 5 5 3 4 4 6 9 10 8 9 9 8 7 6 5 5 5 5 5 4 4 2 1 2 1 1 2 3 3 4 4 4 4 5 4 4 4 3 3 2 2 4 3 3 5 5 4 4 4 2 5 6 4 4 3 4
1 4 6 6 6 5 5 6 6 7 7 7 7 7 9 10 11 11 11 10 10 9 9 10 7 5 5 8 5 4 6 7 8 8 8 5 5 7 4 10 8 8 8 7 7 5 5 5 4 4 5 3 1 1 1 1 1 2 2 3 3 3 4 3 3 4 3 3 4 4 4 4 5 3 2 3 1 2 3 3 2 3 6 6 5 3 2
7 7 4 5 5 6 7 6 6 7 8 8 10 8 8 8 9 9 9 10 10 10 10 10 10 11 10 6 5 6 6 8 9 9 9 9 6 2 6 6 7 7 7 7 7 7 6 6 5 4 5 4 4 3 1 1 2 3 4 3 3 3 2 4 3 3 2 2 3 3 3 4 3 1 2 3 3 4 4 6 4 5 7 6 6 5 4
7 6 6 7 8 8 8 8 7 7 7 7 8 10 10 9 10 9 9 9 8 8 7 7 7 8 8 8 5 4 6 6 6 6 6 7 8 7 7 6 6 7 7 7 7 6 6 5 4 4 5 4 5 4 3 2 2 3 3 4 0 7 6 4 2 2 2 3 4 4 3 2 2 3 1 3 5 5 5 6 6 6 5 4 5 4 3
7 7 9 7 7 8 8 7 8 9 9 10 10 10 10 10 11 11 11 10 10 10 9 8 7 7 6 7 6 5 6 7 5 7 9 10 10 9 8 7 7 7 8 8 7 6 6 5 5 5 3 2 2 2 3 3 3 4 4 4 3 4 5 4 1 2 3 3 3 4 4 3 4 4 4 4 3 3 4 5 5 4 4 5 4 3 2
8 7 7 9 10 9 10 9 9 10 10 11 10 9 10 10 10 11 10 10 10 8 8 7 7 7 8 7 6 6 5 6 8 8 7 8 9 8 7 5 5 6 6 6 6 6 5 5 4 5 4 4 3 3 4 5 3 3 3 2 4 3 3 5 2 1 3 3 4 4 4 3 3 3 3 3 3 4 4 4 4 4 5 6 5 3 2
8 8 9 10 10 10 10 11 10 10 10 10 11 11 12 11 11 11 11 11 11 11 10 9 8 7 6 5 5 6 9 7 5 5 7 7 6 5 4 5 6 6 6 6 6 5 5 4 4 1 2 2 2 3 2 4 5 4 4 2 1 2 1 1 1 1 3 3 4 4 3 4 4 4 3 1 3 3 4 4 5 4 6 6 5 3 2
10 11 12 12 12 12 13 12 12 12 12 13 12 12 11 11 11 11 11 12 12 11 10 11 9 9 9 9 11 12 9 6 2 3 1 3 6 6 3 5 5 5 5 4 4 6 7 6 7 7 7 4 2 4 5 3 3 2 2 2 1 2 2 1 2 2 3 4 4 4 4 4 4 3 4 4 4 4 5 3 2 6 5 6 6 4 2
12 12 12 12 12 13 13 13 12 13 13 12 12 12 12 12 13 13 13 13 12 12 11 12 11 10 10 8 9 9 9 5 9 4 6 3 2 4 6 6 6 6 5 4 2 5 4 6 7 6 4 6 3 3 6 6 5 2 1 2 3 3 2 3 3 4 4 5 5 4 4 4 3 3 4 4 2 1 1 0 0 2 5 8 6 6 4
13 13 12 12 12 13 13 12 12 12 12 11 12 12 13 13 14 13 13 13 13 13 12 13 12 10 10 9 7 9 4 7 8 7 6 6 4 3 4 5 6 6 6 5 4 5 4 5 3 2 3 1 2 4 5 7 4 1 1 1 2 2 3 3 3 4 5 5 5 4 4 2 2 1 1 2 1 1 2 1 2 1 1 5 8 8 7
14 14 13 12 12 13 12 12 13 13 14 15 15 14 13 13 13 13 14 13 12 12 11 11 11 8 6 4 4 8 9 9 9 9 7 6 7 7 4 5 5 2 2 4 5 5 5 5 5 3 2 4 3 3 2 4 6 2 2 1 2 1 1 2 3 3 4 4 4 5 3 4 3 1 2 3 2 2 2 2 3 3 3 3 4 4 4
14 13 13 13 12 12 12 12 12 12 13 15 15 15 14 15 15 15 14 13 12 10 11 10 8 5 6 5 2 5 6 7 8 8 8 7 4 2 3 5 6 5 5 4 4 6 6 5 3 3 4 3 3 4 4 3 8 5 2 3 3 2 4 4 2 2 2 1 3 2 3 2 1 3 3 5 6 5 2 3 4 3 3 3 3 3 3
12 13 15 14 14 14 14 13 12 12 13 13 15 15 15 16 14 13 13 13 11 9 6 5 4 4 2 2 4 3 4 6 7 8 9 6 5 6 6 5 4 5 2 4 5 5 5 7 5 4 3 3 5 5 3 2 5 2 1 1 2 1 1 1 2 5 5 3 2 1 2 4 4 4 5 5 4 3 3 3 4 4 5 4 3 2 4
13 13 13 13 13 12 11 10 9 10 10 11 10 11 11 12 12 12 10 10 9 9 5 2 5 5 4 6 7 3 6 8 9 8 8 6 6 6 4 5 3 4 7 6 4 5 6 4 4 4 4 3 3 4 2 6 4 5 4 5 6 5 4 5 4 4 3 3 4 4 5 7 8 9 6 4 4 4 4 4 2 2 6 5 4 4 2
12 12 12 12 11 10 9 10 10 10 9 8 8 9 11 12 10 8 4 4 4 4 5 6 7 7 6 6 5 4 4 7 7 6 6 5 6 5 6 5 4 3 6 6 7 6 5 5 5 5 5 3 3 5 5 2 3 4 5 6 5 3 4 5 6 5 6 7 7 7 7 6 6 6 7 5 3 3 3 3 4 5 5 3 2 2 3
11 11 10 10 9 8 8 7 8 7 7 7 7 6 6 6 6 5 6 6 3 4 4 5 6 6 5 4 5 5 4 5 4 4 3 0 1 2 1 6 6 7 9 6 5 5 5 4 6 6 7 6 5 6 4 3 4 6 5 4 3 3 4 5 3 3 4 3 3 4 4 2 3 5 3 3 4 2 3 4 4 3 2 3 4 4 3
10 9 8 9 9 8 7 6 7 7 7 8 6 5 7 4 4 6 7 4 4 5 4 4 4 5 4 1 3 4 4 4 4 2 2 2 2 3 5 7 6 7 11 6 6 6 4 6 6 8 9 8 6 4 1 4 7 5 4 4 4 4 5 5 4 4 3 3 4 4 4 4 4 3 4 3 3 2 2 3 3 4 4 3 3 3 3
8 8 7 6 6 7 8 8 7 7 5 5 7 6 6 7 5 3 2 6 6 4 4 3 4 1 1 3 2 3 2 2 3 4 4 5 6 6 6 7 5 6 8 8 3 2 6 6 9 10 8 6 3 2 2 5 4 3 4 4 4 5 4 4 5 4 4 5 6 5 2 3 4 3 4 5 3 3 3 4 3 4 3 4 3 3 3
10 7 5 3 2 3 3 3 4 5 7 5 3 6 4 1 2 3 5 2 2 1 2 2 1 1 2 4 4 3 4 4 3 4 3 0 1 4 4 5 4 5 9 9 3 6 6 11 11 10 8 5 2 2 4 2 0 3 4 4 4 4 4 4 4 4 4 5 6 4 1 3 3 5 8 6 4 3 3 3 3 3 2 3 3 3 3
6 5 5 5 4 4 5 4 4 4 5 4 4 3 4 5 6 4 1 2 3 1 1 1 1 0 1 3 2 1 1 1 1 2 1 3 5 7 8 8 7 8 4 5 6 8 7 8 8 11 9 3 2 4 5 1 3 4 4 3 3 3 5 6 4 5 5 6 6 4 3 4 4 4 3 5 5 2 3 2 3 4 3 3 3 3 2
6 5 5 5 5 4 4 4 4 4 3 3 3 2 2 2 1 4 6 6 5 3 3 2 2 3 3 4 3 2 1 0 3 5 6 6 7 7 6 6 7 8 6 7 9 9 11 11 10 10 10 6 3 5 6 7 7 9 6 3 6 10 5 3 7 6 5 3 3 3 4 3 2 6 7 5 2 2 5 3 4 5 4 4 4 4 4
4 4 4 4 4 4 3 4 4 3 2 2 3 3 3 3 3 4 3 4 6 6 5 4 5 6 6 6 5 3 3 4 4 4 6 5 5 7 7 6 11 10 6 6 8 7 9 11 10 10 9 7 4 5 5 7 5 4 3 5 5 6 4 6 4 6 9 7 3 4 3 5 4 4 6 5 1 4 5 5 4 5 6 4 4 4 5
3 3 3 3 3 3 4 3 4 4 3 3 3 3 3 4 4 4 3 2 4 8 5 2 5 2 2 1 1 2 5 6 6 1 2 2 5 5 6 7 7 9 9 6 9 7 9 11 11 9 7 4 4 4 5 6 3 3 5 6 3 6 6 4 5 7 6 7 6 4 5 4 3 6 7 6 4 4 5 5 5 4 7 1 4 4 4
2 3 3 2 3 3 2 2 3 3 3 3 3 3 3 3 4 6 4 4 4 7 8 3 4 3 3 3 4 5 5 4 4 3 5 5 4 6 8 7 8 8 7 6 5 7 7 6 5 6 6 5 5 5 5 6 5 4 4 5 8 9 2 5 4 5 6 7 7 6 4 4 5 5 6 6 6 5 5 5 5 4 4 5 5 4 4
3 4 5 6 5 4 3 2 3 4 4 3 3 3 4 5 5 6 5 8 7 5 4 3 3 2 0 2 5 5 5 4 4 6 7 6 6 4 7 9 7 7 6 6 5 8 7 7 8 9 8 5 4 5 5 3 2 3 6 4 3 3 5 5 4 5 3 4 7 7 5 4 4 6 6 4 4 4 4 4 4 4 4 5 6 5 4
Wind_Direction
219 246 266 268 253 219 237 227 223 225 224 247 254 238 239 207 199 231 156 175 188 178 207 193 199 204 233 229 194 253 248 200 210 198 188 187 198 184 191 217 203 185 183 186 184 183 179 170 170 171 171 168 145 147 145 124 144 131 118 129 178 177 164 159 157 165 175 184 185 184 193 204 206 226 231 244 252 256 258 272 270 284 302 309 321 313 299
218 222 245 250 254 243 219 234 241 232 229 222 231 251 253 242 218 226 214 200 211 212 238 241 255 357 271 327 14 338 269 277 280 296 223 192 193 189 191 196 201 218 191 176 172 171 172 171 168 170 167 163 154 151 152 149 137 183 143 154 166 175 176 176 169 175 177 188 187 187 198 205 213 214 224 227 240 251 274 281 284 267 282 305 293 283 283
231 222 216 234 245 254 253 232 236 237 232 239 232 230 237 248 248 236 241 222 203 178 194 255 259 268 213 133 220 259 320 322 295 267 250 225 190 194 194 175 198 234 234 181 167 170 172 170 171 172 169 161 155 162 150 139 151 190 159 153 168 178 181 176 176 181 182 190 192 193 200 211 213 223 224 236 247 248 248 252 269 279 259 255 277 298 298
238 242 244 234 236 241 249 252 250 243 233 220 220 233 230 240 241 346 311 271 240 203 203 198 198 229 103 157 182 234 220 238 233 247 266 274 209 189 179 182 175 173 204 209 178 177 176 173 171 172 166 162 155 135 128 129 145 226 180 161 173 181 183 179 180 187 188 190 193 195 201 205 213 214 223 232 242 251 252 251 254 259 267 266 273 274 272
241 239 233 233 233 238 236 238 240 241 254 268 250 243 239 239 238 173 217 232 217 261 24 291 317 93 149 207 220 230 323 7 309 304 306 265 283 267 175 179 181 192 194 204 183 179 178 177 178 173 158 142 126 118 115 176 194 214 178 171 175 180 186 185 189 190 189 194 193 199 200 206 206 213 219 223 234 249 252 251 249 254 275 261 250 266 279
231 231 253 264 270 243 239 280 314 309 248 242 257 258 256 206 143 216 59 50 44 26 222 256 305 291 323 347 32 32 341 304 301 283 249 258 261 270 249 190 188 191 196 193 179 182 181 180 180 170 152 135 137 153 161 191 219 204 176 171 177 183 188 190 191 192 193 194 201 200 204 204 208 213 218 223 231 249 258 257 250 250 255 269 274 268 267
259 254 260 249 245 249 274 272 266 270 271 266 262 267 264 238 143 139 147 112 298 294 274 197 181 253 289 276 270 275 250 249 257 252 267 261 242 241 251 211 183 180 191 176 167 179 182 182 172 163 138 139 142 159 167 209 217 187 173 175 177 184 189 192 191 192 193 197 202 205 205 211 211 217 221 222 226 232 248 254 257 256 255 269 276 267 261
241 249 234 245 242 254 341 323 266 258 266 272 293 295 298 291 256 125 177 208 219 244 220 135 209 218 240 236 238 226 244 251 253 257 251 238 230 228 234 194 171 171 183 187 183 180 185 175 171 166 157 157 162 177 192 210 198 175 171 178 180 183 191 193 194 192 194 194 203 204 210 213 218 224 226 223 224 224 230 243 250 253 252 250 258 265 263
245 233 238 253 352 247 210 250 256 273 262 272 278 284 277 304 280 194 152 175 196 217 213 174 254 270 292 325 290 270 251 210 220 243 246 239 205 207 198 185 165 159 170 180 189 165 166 170 174 169 165 173 175 181 194 195 177 179 175 183 187 189 195 195 194 194 193 199 198 203 210 216 220 224 226 219 219 216 234 239 242 236 239 241 238 250 262
233 240 236 236 225 244 220 238 263 263 270 287 279 276 269 276 284 282 197 153 201 239 328 343 301 8 333 277 272 263 254 188 176 216 250 229 157 161 171 151 151 150 162 176 171 165 164 174 179 173 170 177 182 176 179 181 180 185 189 193 196 194 200 199 195 192 194 197 200 202 206 215 220 225 226 221 224 213 223 232 240 250 265 268 265 269 266
245 231 245 243 245 235 223 224 214 253 260 256 264 258 261 7 289 239 205 225 195 169 202 246 206 223 272 271 273 4 28 115 175 203 221 199 149 158 161 163 161 167 166 173 164 161 161 173 174 170 175 175 178 172 177 187 190 189 194 194 196 202 199 200 197 195 197 197 205 206 209 212 217 225 223 220 224 223 224 227 235 242 262 274 283 270 267
217 261 256 262 249 299 171 237 262 263 256 256 272 248 223 116 245 224 215 235 231 186 187 230 257 231 261 260 10 26 293 247 207 186 204 114 133 150 148 159 156 161 156 152 157 168 168 174 172 173 173 173 179 179 180 193 199 194 192 198 202 201 200 199 200 202 203 203 204 211 212 209 210 215 213 224 234 233 224 232 236 240 247 241 242 255 269
218 210 220 234 226 79 267 240 197 210 223 283 239 228 77 247 221 146 65 89 106 148 211 174 243 215 225 235 261 249 265 273 178 163 154 126 149 155 164 153 155 155 158 154 162 165 167 172 173 170 170 170 172 169 183 193 211 210 190 195 196 196 200 200 204 210 209 209 205 206 215 215 208 208 211 221 221 229 243 250 221 219 236 260 273 291 312
243 254 244 237 240 156 263 354 334 69 240 216 191 313 329 320 100 127 206 186 227 17 341 337 230 222 236 282 300 310 291 279 145 165 126 124 100 173 165 142 153 157 162 156 168 164 156 162 155 163 146 159 169 155 183 201 209 221 230 195 190 197 199 203 205 211 216 214 207 206 208 210 213 216 219 225 222 230 234 239 264 271 268 266 259 278 327
224 222 244 292 254 157 211 118 199 34 330 233 311 91 140 224 26 325 112 249 271 359 301 266 310 330 328 314 320 329 326 307 145 182 143 137 156 193 166 156 162 162 159 164 169 153 142 159 157 145 138 153 155 183 215 224 251 266 269 255 217 203 209 207 208 215 219 211 200 205 211 212 216 218 207 212 214 250 257 328 320 302 291 295 324 25 22
312 246 219 258 2 156 158 117 14 116 132 195 145 189 44 313 223 218 302 61 4 1 336 339 316 318 312 308 293 276 294 303 140 130 134 141 153 120 180 168 165 166 149 164 152 141 149 155 123 136 176 154 164 186 203 212 290 289 282 272 261 245 228 217 212 215 223 216 201 204 215 220 222 215 204 192 193 174 55 22 341 305 344 346 62 145 233
357 55 133 166 349 41 72 88 106 108 131 146 149 174 117 231 357 11 336 14 10 352 313 304 294 289 285 286 290 292 348 268 159 185 159 155 150 142 240 187 165 151 154 153 142 121 123 142 150 158 159 149 151 173 163 235 296 288 287 277 270 260 257 238 221 225 231 335 331 262 241 239 227 206 202 192 90 63 135 180 218 219 259 246 240 245 248
108 35 37 53 43 42 62 116 120 90 106 69 41 40 45 39 30 357 4 0 350 334 332 306 309 294 308 301 297 286 119 124 36 1 116 111 130 141 222 215 160 142 152 147 123 108 102 93 93 102 112 112 140 144 148 184 243 247 249 259 266 268 267 258 252 19 339 275 250 243 244 273 267 224 141 112 136 209 178 196 162 180 229 227 230 228 233
258 348 317 41 15 63 64 46 52 52 47 62 60 56 56 18 8 355 50 3 325 295 305 297 300 305 302 296 285 281 190 163 115 115 111 80 66 61 293 243 178 147 143 132 127 121 118 131 136 136 136 142 143 142 173 208 216 217 231 232 263 290 278 270 107 297 259 300 302 333 344 326 285 39 301 126 124 169 244 247 232 241 243 234 233 234 233
69 190 254 356 54 66 62 54 60 54 49 53 56 55 37 5 41 7 15 331 309 341 290 283 274 276 275 275 303 286 220 117 93 77 63 45 56 88 308 289 115 120 134 143 125 121 118 109 84 81 92 90 132 103 324 294 297 269 3 337 269 272 276 286 296 239 204 290 44 236 350 323 351 342 308 258 172 193 201 188 209 236 240 230 222 226 208
112 105 107 348 217 93 83 76 63 43 38 46 55 35 36 35 27 18 335 317 318 328 11 5 340 302 350 17 339 350 62 56 54 48 34 43 27 6 21 311 335 58 69 78 95 103 95 85 83 81 73 57 29 8 306 336 15 334 243 295 264 265 271 252 234 185 360 323 343 91 204 190 187 77 351 340 0 17 37 358 275 227 233 220 221 226 216
17 92 354 358 132 70 72 52 49 46 39 37 58 45 47 35 25 10 357 336 336 16 355 354 13 17 20 32 48 72 83 87 70 68 60 38 28 308 276 82 53 64 66 67 71 84 85 100 111 109 109 86 58 357 11 22 38 31 17 346 304 278 274 277 273 251 180 185 168 170 186 196 139 90 70 58 34 20 79 35 33 10 23 33 5 347 78
111 229 116 25 97 119 54 49 36 45 43 28 54 54 33 27 21 15 356 350 346 350 60 1 25 36 34 23 53 86 79 74 87 92 90 94 148 230 191 136 102 98 103 113 125 108 108 135 115 126 119 132 138 97 75 79 36 34 341 304 287 286 278 279 308 56 143 198 179 186 189 192 179 165 158 70 58 61 60 58 47 50 55 49 37 31 58
94 78 64 49 39 57 57 44 322 72 67 20 28 31 31 11 5 9 352 346 332 318 337 79 34 122 43 59 80 91 115 119 120 134 154 162 198 193 157 155 145 134 133 147 140 137 140 131 112 139 142 140 115 118 105 101 117 125 284 298 280 278 285 295 320 179 197 192 215 230 196 94 74 87 117 128 129 81 67 47 57 59 58 61 64 66 55
75 49 34 21 346 343 328 332 358 2 87 19 19 8 14 350 347 359 327 327 307 302 298 278 207 194 219 199 116 128 134 138 147 158 170 184 193 183 180 154 147 140 138 137 130 135 149 157 151 155 150 132 143 89 69 183 145 220 293 287 293 299 308 316 320 337 352 347 340 29 58 61 343 137 121 93 54 219 68 21 43 62 53 49 59 73 81
49 50 7 344 314 300 295 291 264 45 51 15 350 347 348 319 322 316 315 294 286 279 278 297 312 280 190 179 144 139 144 163 169 150 178 177 192 207 164 161 151 154 151 159 168 167 157 154 154 159 154 182 169 163 198 159 160 208 234 259 285 302 305 314 322 318 306 299 299 132 129 138 155 143 159 196 219 218 166 164 146 56 56 46 42 51 61
27 34 355 298 290 301 15 9 346 355 349 352 327 328 315 309 315 306 293 286 281 281 294 307 276 308 350 149 197 128 152 159 164 176 180 196 209 201 205 184 163 165 156 152 149 157 155 148 153 150 176 120 108 125 183 220 179 205 267 273 271 277 288 286 280 302 314 328 353 17 82 117 122 130 108 271 253 213 202 194 178 161 144 116 20 331 85
341 331 343 321 326 331 345 353 353 335 321 320 316 303 309 315 298 288 286 290 292 294 300 263 247 269 201 133 131 91 65 80 91 92 294 235 240 252 250 173 155 155 151 138 124 117 125 149 162 178 154 108 103 177 241 157 184 253 253 270 273 273 287 345 18 18 27 30 16 28 42 67 78 99 169 207 223 228 223 227 188 147 135 133 137 205 247
283 36 45 24 33 0 339 313 301 300 307 310 318 321 306 301 302 299 297 292 296 299 280 290 293 255 234 149 159 183 175 172 177 198 218 224 236 259 175 131 155 154 142 146 143 152 156 161 172 152 126 122 151 336 342 327 286 279 302 303 302 322 29 28 2 356 13 19 40 43 7 54 116 145 191 254 77 314 326 341 272 142 124 134 148 143 194
24 24 0 2 334 317 310 313 327 338 320 316 305 299 305 314 317 318 316 312 318 315 321 329 333 328 312 271 196 204 233 233 200 197 201 202 212 179 147 164 159 150 157 153 153 164 160 147 137 150 146 169 214 166 186 63 322 304 302 308 312 340 11 31 354 320 334 32 37 45 42 56 74 89 234 198 195 186 200 197 150 140 147 163 172 171 154
29 3 343 333 332 334 320 319 317 298 303 314 330 329 323 318 312 318 317 319 304 289 288 287 289 289 298 296 301 294 254 216 187 196 215 147 165 172 168 166 190 165 174 162 153 148 140 153 153 106 59 38 45 22 4 330 293 303 284 284 321 90 76 50 24 350 335 31 38 37 49 71 85 84 108 121 105 104 117 119 126 133 123 93 92 90 55
352 349 335 330 336 331 331 345 337 331 323 318 308 306 318 319 311 303 303 303 302 309 314 322 320 309 301 298 267 225 237 260 254 231 216 187 170 162 174 184 200 188 178 171 168 168 152 138 126 101 85 53 27 296 258 249 261 269 282 273 257 154 83 32 316 6 21 56 52 62 71 93 108 110 115 105 121 152 133 135 133 124 111 103 101 85 69
351 344 347 348 337 323 322 318 314 311 313 308 308 305 299 295 293 293 294 297 300 295 290 282 273 270 275 298 304 260 241 258 259 246 205 168 167 167 171 171 134 126 126 124 120 118 124 144 140 132 156 176 205 223 258 274 263 269 291 4 63 73 94 94 56 34 81 84 86 83 91 102 101 128 137 152 130 90 108 137 143 145 130 118 104 92 76
348 327 322 317 310 306 303 306 305 302 300 302 302 303 300 301 306 304 301 301 300 305 307 308 311 321 320 308 295 278 259 257 243 198 167 157 156 146 125 103 111 111 111 122 128 129 134 114 96 165 173 233 238 251 350 352 343 339 353 321 40 73 129 127 154 105 90 80 104 128 136 121 108 105 97 106 122 151 165 181 178 166 142 119 110 106 111
328 315 310 308 309 305 304 301 303 301 298 294 296 295 299 301 300 299 300 300 298 297 296 289 283 282 280 273 276 287 278 170 175 265 104 92 73 48 80 113 118 111 115 112 102 82 68 53 31 15 1 309 349 353 31 10 342 20 44 21 151 152 123 124 75 53 91 103 113 116 118 126 130 129 142 159 170 185 204 227 175 158 137 122 124 123 121
323 320 314 310 309 308 304 300 296 300 302 301 298 297 296 296 293 290 290 287 283 282 281 280 275 259 255 262 269 260 257 203 159 176 109 275 146 187 157 137 132 123 114 103 130 97 78 60 30 12 4 5 2 49 39 350 343 64 91 150 142 129 121 100 100 97 104 114 113 106 95 100 115 147 163 184 192 144 42 355 2 131 156 141 147 150 150
315 310 305 300 299 300 302 303 296 290 291 292 291 288 287 285 286 286 285 284 277 272 266 267 271 273 272 275 272 277 224 100 97 120 146 147 150 210 159 137 163 162 173 171 152 110 115 118 129 148 277 252 57 45 14 343 317 136 205 184 134 164 144 137 135 142 132 148 140 114 119 147 159 145 296 300 314 312 293 330 325 290 263 146 157 158 162
304 301 297 292 291 294 299 303 307 304 301 297 295 291 287 284 282 282 280 279 279 273 276 281 279 277 288 299 351 65 96 116 128 136 148 153 162 150 168 205 208 183 248 132 147 153 125 124 146 187 199 112 98 89 53 299 298 263 165 158 160 155 158 144 153 162 161 174 124 122 178 213 155 163 218 223 202 215 212 251 257 256 238 210 202 191 155
312 304 300 302 299 291 292 295 294 297 298 296 293 291 290 286 284 283 280 277 272 276 268 260 266 272 270 272 189 146 131 124 133 135 123 109 95 132 107 70 65 71 74 137 148 113 129 149 183 162 144 148 131 115 139 215 273 269 145 139 157 172 177 172 164 94 54 119 143 146 182 124 158 220 242 245 233 246 280 274 283 289 262 247 235 212 169
309 308 302 300 301 306 304 303 308 318 321 319 313 307 304 299 297 299 297 300 316 301 295 333 301 291 297 176 176 153 122 130 126 127 112 103 107 108 110 115 101 84 113 223 192 140 149 159 157 124 137 168 153 134 134 235 266 253 127 225 107 173 354 38 188 206 194 193 161 133 271 246 249 268 263 258 267 259 249 242 219 244 267 250 234 215 198
306 307 308 300 295 295 304 322 315 304 300 304 316 325 326 322 316 309 316 336 346 343 343 6 28 21 42 62 49 83 126 94 93 100 111 137 149 139 152 153 153 187 205 207 123 137 162 174 157 167 177 184 118 57 164 171 231 253 194 187 184 201 191 198 212 217 201 186 173 185 207 215 195 198 209 228 244 247 241 243 250 248 254 225 192 206 191
305 304 302 299 298 301 310 308 308 310 313 322 322 322 334 347 349 2 6 354 341 329 15 26 71 96 91 106 110 67 87 109 122 147 188 166 156 187 196 160 161 153 96 97 130 140 149 190 195 205 169 152 129 77 48 296 260 265 259 256 271 261 225 210 219 223 190 192 201 207 227 230 220 208 200 213 238 257 248 233 223 222 226 246 217 193 206
316 308 306 307 308 312 307 311 317 321 325 340 333 342 349 354 11 358 311 283 295 26 57 78 81 96 101 95 117 133 127 123 134 176 174 65 194 7 95 138 131 135 152 160 175 172 186 107 88 62 69 78 61 35 5 292 282 282 279 288 290 290 272 275 287 317 317 302 268 268 273 312 348 328 328 291 260 243 245 261 259 257 262 238 215 206 205
312 313 317 316 319 312 308 310 316 331 347 350 337 330 328 330 45 20 9 40 71 66 67 97 87 68 58 84 151 131 152 163 168 149 148 158 108 111 138 145 152 172 190 199 201 189 158 113 109 98 89 83 86 67 345 285 273 279 311 314 318 322 319 302 279 267 270 306 294 275 280 300 282 278 292 288 274 236 247 261 241 223 227 214 232 210 193
320 330 342 351 352 341 326 317 335 350 327 332 348 340 340 340 2 58 78 43 21 16 24 6 355 336 89 71 88 146 163 175 184 158 191 172 165 156 173 154 168 174 195 199 177 129 115 116 115 112 98 88 58 32 295 264 292 326 332 333 326 315 303 287 278 261 226 232 246 248 245 265 278 279 269 269 265 262 247 229 233 234 210 217 210 209 193
340 351 2 355 5 5 331 330 326 333 334 353 345 338 8 31 317 334 332 18 245 225 210 169 176 184 184 192 202 201 184 189 185 176 204 335 187 155 156 172 175 182 189 198 182 152 124 123 118 114 102 77 51 254 261 238 245 324 343 331 325 311 289 285 282 264 278 333 342 7 320 228 195 244 243 241 242 231 240 253 226 227 208 212 220 197 162
6 7 4 8 6 359 344 339 320 349 2 8 333 334 354 6 331 311 235 211 259 233 206 149 199 28 326 328 348 137 195 184 50 8 276 196 145 163 180 194 160 178 196 206 155 140 141 142 139 119 110 128 223 265 260 202 139 176 201 229 253 262 302 312 302 300 287 248 231 223 267 333 327 295 302 311 286 162 221 174 228 238 212 226 220 163 171
357 358 6 358 359 359 352 357 350 13 20 2 328 335 346 314 338 309 326 335 315 296 254 200 228 223 236 247 235 223 200 138 218 204 226 213 188 183 180 193 161 172 123 69 109 128 138 146 135 126 143 172 222 255 261 263 295 347 12 58 7 348 340 287 287 289 267 269 355 287 250 267 293 297 291 250 184 156 247 226 204 230 239 209 197 170 188
347 335 331 337 343 347 353 341 334 342 337 321 315 314 318 317 310 308 303 285 273 245 235 246 224 219 206 207 209 210 222 231 237 244 207 199 193 169 208 151 149 162 164 155 142 143 152 151 147 146 170 189 213 244 260 275 284 267 308 323 272 199 280 325 13 351 333 313 231 266 284 241 224 228 273 284 198 189 227 229 215 226 235 213 190 190 195
335 326 348 2 353 354 343 339 330 344 327 325 311 302 307 322 320 308 297 294 315 327 299 257 281 271 113 34 332 251 223 210 204 178 44 213 213 177 186 155 162 170 195 188 164 157 164 163 156 167 174 202 227 244 269 277 310 311 285 262 269 290 269 251 302 304 306 311 297 241 224 224 224 212 226 247 249 232 223 214 212 93 41 334 200 195 194
288 280 269 235 239 243 276 298 297 286 293 300 308 321 321 305 285 280 284 289 270 247 254 235 210 205 193 180 209 218 195 193 207 173 210 199 198 199 169 165 170 176 201 233 167 148 155 169 176 189 199 214 246 254 261 274 293 300 249 279 335 336 330 149 241 253 262 266 272 271 264 221 227 241 229 229 230 225 229 223 222 194 207 216 222 222 203
223 227 225 222 237 238 216 227 247 260 263 262 278 302 306 289 277 265 238 216 243 275 262 169 183 243 22 283 244 206 190 201 212 214 213 196 192 223 154 170 170 192 195 221 164 153 174 191 192 192 206 219 232 243 250 299 347 301 307 298 236 226 298 309 300 281 229 231 246 254 283 287 254 239 242 232 240 251 245 235 233 230 202 211 218 224 223